Flag for India Weather past 2 weeks in Thiruvananthapuram, Kerala, India

Now
77 °F

Partly cloudy.


Feels Like: 78 °F
Forecast: 78 / 83 °F
Wind: 3 mph from East

Location: Thiruvananthapuram

Current Time: Aug 1, 2014 at 8:40:32 AM

Latest Report: Aug 1, 2014 at 6:40 AM


Visibility: 2 mi

Pressure: 29.80 "Hg

Humidity: 89%

Dew point: 73 °F

Location of ThiruvananthapuramLocation

Historic Weather in Thiruvananthapuram — Graph

°F

Thiruvananthapuram temperature yesterday

Maximum temperature yesterday: 90 °F (at 11:40 AM)
Minimum temperature yesterday: 75 °F (at 11:40 PM)
Average temperature yesterday: 83 °F

Past Weeks' High & Low Weather Summary

 TemperatureHumidityPressure
High90 °F (Jul 24, 1:40 PM)94% (Jul 20, 5:40 AM)29.92 "Hg (Jul 20, 5:40 AM)
Low75 °F (Jul 20, 5:40 AM)63% (Jul 25, 2:40 PM)29.71 "Hg (Jul 17, 4:40 PM)
Average82 °F81%29.81 "Hg
* Reported Jul 17 6:40 AM — Aug 1 6:40 AM, Thiruvananthapuram, Weather by CustomWeather, © 2014

Note: Actual official high and low records may vary slightly from our data, if they occured in-between our weather recording intervals... More about our weather records

Advertising

Thiruvananthapuram weather history for previous 24 hours

 ConditionsComfort  
Time TempWeatherWind HumidityBarometerVisibility
6:40 AM
Aug 1
77 °FPartly cloudy.3 mph89%29.80 "Hg2 mi
5:40 AM77 °FPartly cloudy.3 mph89%29.80 "Hg2 mi
4:40 AM75 °FPartly cloudy.No wind94%29.77 "Hg2 mi
3:40 AM75 °FLight rain. Mostly cloudy.3 mph94%29.77 "Hg1 mi
2:40 AM77 °FLight rain. Mostly cloudy.3 mph89%29.77 "Hg2 mi
12:40 AM75 °FPartly cloudy.3 mph94%29.83 "Hg2 mi
11:40 PM
Jul 31
75 °FLight rain. Mostly cloudy.8 mph94%29.83 "Hg2 mi
10:40 PM79 °FPassing clouds.5 mph89%29.83 "Hg2 mi
9:40 PM81 °FPassing clouds.6 mph84%29.83 "Hg2 mi
8:40 PM82 °FPassing clouds.5 mph74%29.80 "Hg2 mi
7:40 PM82 °FPassing clouds.5 mph74%29.77 "Hg2 mi
6:40 PM84 °FScattered clouds.6 mph74%29.77 "Hg2 mi
5:40 PM86 °FScattered clouds.7 mph79%29.77 "Hg2 mi
4:40 PM88 °FPartly sunny.8 mph75%29.74 "Hg2 mi
3:40 PM88 °FBroken clouds.7 mph70%29.74 "Hg2 mi
2:40 PM88 °FBroken clouds.8 mph75%29.77 "Hg2 mi
1:40 PM90 °FPartly sunny.9 mph71%29.77 "Hg3 mi
12:40 PM90 °FScattered clouds.9 mph71%29.80 "Hg3 mi
11:40 AM90 °FScattered clouds.7 mph71%29.83 "Hg3 mi
10:40 AM88 °FScattered clouds.7 mph70%29.83 "Hg3 mi
9:40 AM86 °FRain. Cloudy.6 mph75%29.83 "Hg3 mi
8:40 AM84 °FHaze.5 mph79%29.83 "Hg2 mi
Weather by CustomWeather, © 2014

See weather overviewHow to use our weather pages